Weather in Tri Rutki

Russia / Mari El Republic     56°31′25″N   46°37′43″E
temp.,
°C
wind,
m/s
gust,
m/s
humid.,
%
clouds,
%
prec.,
mm/h
press.,
hPa
HPBL,
m
7 march, sun
sun700:00−16wsw229756 0.0 101120
03:00−15wsw239875 0.1 101150
06:00−18sw2210095 0.1 101020
09:00−13ssw359793 0.1 1008236
12:00−9s4893100 0.0 1006485
15:00−7s61188100 0.1 1002796
18:00−7s61294100 0.8 999953
21:00−6s51294100 1.8 995786
8 march, mon
mon800:00−5s4996100 1.1 991642
03:00−6sse3896100 1.6 989382
06:00−5ne2497100 1.5 988152
09:00−7w71494100 2.9 991794
12:00−5w71375100 0.5 9941162
15:00−5w5984100 0.5 997961
18:00−9w239174 0.0 99921
21:00−10wnw129583 0.1 100121
9 march, tue
tue900:00−14nw2296100 0.0 100120
03:00−14nw359794 0.1 1003108
06:00−16nw259781 0.0 100695
09:00−14nw259472 0.1 1008289
12:00−11nw349098 0.0 1010628
15:00−10nw358999 0.2 1011799
18:00−15n2694100 0.1 1012126
21:00−18nnw2597100 0.1 101499
10 march, wed
wed1000:00−21nnw259898 0.0 1015120
03:00−24nnw379789 0.0 1017127
06:00−28nnw359852 0.0 101894
09:00−24n369534 0.0 1020283
12:00−20nnw369169 0.0 1022515
15:00−17nnw368665 0.0 1022631
18:00−21wnw239440 0.0 102222
21:00−23w339722 0.0 102376
11 march, thu
thu1100:00−24w369952 0.0 1022118
03:00−24w389968 0.0 1022154
06:00−21w499788 0.1 1021328
09:00−17w499494 0.3 1021386
12:00−11wnw51088100 0.0 1022557
15:00−7wnw51082100 0.0 1022842
18:00−9wnw41188100 0.0 1023549
21:00−12wnw499199 0.0 1024327